Location: Kitt Peak
(31.9639°N, 111.5992°W)
Time: 08:50:51
(UTC-07:00)

LightSail 2 - Visible Passes

Search period start: 09 July 2020 00:00
Search period end: 19 July 2020 00:00
Orbit: 691 x 722 km, 24.0° (Epoch: 08 July)

Date Brightness Start Highest point End Pass type
(mag) Time Alt. Az. Time Alt. Az. Time Alt. Az.
10 Jul 7.4 04:57:24 10° S 04:58:53 11° SSE 05:00:22 10° SE visible
12 Jul 7.0 04:40:35 10° SSW 04:43:42 16° SSE 04:46:49 10° ESE visible
13 Jul 7.2 03:43:32 12° SSE 03:43:45 12° SSE 03:45:50 10° SE visible
14 Jul 6.6 04:25:47 14° SSW 04:28:31 22° SSE 04:32:21 10° ESE visible
15 Jul 6.9 03:29:13 17° SSE 03:29:13 17° SSE 03:31:52 10° ESE visible
16 Jul 6.2 04:11:27 21° SSW 04:13:20 27° S 04:17:33 10° ESE visible
17 Jul 6.8 03:14:54 20° SE 03:14:54 20° SE 03:17:16 10° ESE visible
17 Jul 6.0 04:53:43 10° WSW 04:58:12 33° S 05:02:40 10° ESE visible
18 Jul 5.9 03:57:09 29° SSW 03:58:08 31° S 04:02:33 10° ESE visible
